Weather in Bektyshevo

Russia / Yaroslavl Oblast     56°34′13″N   39°13′57″E
temp.,
°C
wind,
m/s
gust,
m/s
humid.,
%
clouds,
%
prec.,
mm/h
press.,
hPa
HPBL,
m
24 june, thu
thu2400:00+22ssw227123 0.0 102111
03:00+21ssw33736 0.0 102126
06:00+22sw23785 0.0 102165
09:00+27wsw23630 0.0 1020303
12:00+30wsw22532 0.0 1020961
15:00+32w13446 0.0 10191502
18:00+31sse22585 0.0 101741
21:00+24ssw33724 0.0 101739
25 june, fri
fri2500:00+22wsw357336 0.0 101869
03:00+20nw2285100 0.4 101718
06:00+22ssw348483 0.0 101794
09:00+26wsw346942 0.0 1016416
12:00+30wsw22565 0.0 10161212
15:00+31wsw23455 0.0 10151797
18:00+30sse23592 0.0 101279
21:00+23wsw4107943 0.0 1014202
26 june, sat
sat2600:00+19ne349489 0.2 101573
03:00+18sw33925 0.2 101340
06:00+20wsw368935 0.0 1014182
09:00+24wsw35695 0.0 1014555
12:00+27wsw34593 0.0 1013962
15:00+30sw24515 0.0 10131288
18:00+30ssw24629 0.0 1012477
21:00+24sw23760 0.0 101243
27 june, sun
sun2700:00+22sw34845 0.0 101260
03:00+20wnw22860 0.0 101311
06:00+22wsw22883 0.4 101390
09:00+26wsw23740 0.4 1013457
12:00+28w23607 0.0 1013984
15:00+30wnw2354100 0.0 10131248
18:00+30ese116049 0.0 1011353
21:00+20ese699595 11.1 1013197
28 june, mon
mon2800:00+19ssw1291100 0.7 101213
03:00+19sse229249 0.7 101222
06:00+20ssw249698 2.2 1012130
09:00+24e1184100 3.2 1012299
12:00+21sw3793100 1.9 1013303
15:00+21ene3389100 3.4 101196
18:00+23ene117972 0.1 1011198
21:00+19sse3695100 3.4 1011133